This is the latest recevied weather packets stored in our database for station/object KC1OHT-13. If no packets are shown the sender has not sent any weather packets the latest 1 day(s).
| Time | Temp. | Humidity | Pressure | Rain* | Wind** | Luminosity | Snow |
|---|---|---|---|---|---|---|---|
| 1778032543 | 16.67° C | 67% | 1008.3 hPa | 0 mm | 2.24 m/s, 225° | 0 W/m² | - |
| 1778032239 | 16.67° C | 67% | 1008.2 hPa | 0 mm | 0.89 m/s, 270° | 0 W/m² | - |
| 1778031937 | 16.67° C | 68% | 1008.1 hPa | 0 mm | 1.34 m/s, 197° | 0 W/m² | - |
| 1778031632 | 16.67° C | 69% | 1008.2 hPa | 0 mm | 1.34 m/s, 140° | 0 W/m² | - |
| 1778031331 | 16.67° C | 69% | 1008.2 hPa | 0 mm | 1.79 m/s, 140° | 0 W/m² | - |
| 1778031027 | 16.67° C | 68% | 1008.1 hPa | 0 mm | 1.34 m/s, 194° | 0 W/m² | - |
| 1778030723 | 16.67° C | 68% | 1008.3 hPa | 0 mm | 0.45 m/s, 142° | 0 W/m² | - |
| 1778030420 | 16.67° C | 67% | 1008.1 hPa | 0 mm | 0.89 m/s, 148° | 0 W/m² | - |
| 1778030128 | 16.67° C | 67% | 1007.8 hPa | 0 mm | 0.45 m/s, 8° | 0 W/m² | - |
| 1778029813 | 17.22° C | 67% | 1007.8 hPa | 0 mm | 1.34 m/s, 61° | 0 W/m² | - |
| 1778029508 | 17.22° C | 67% | 1008 hPa | 0 mm | 1.34 m/s, 101° | 0 W/m² | - |
| 1778029204 | 17.22° C | 67% | 1007.9 hPa | 0 mm | 1.34 m/s, 8° | 0 W/m² | - |
| 1778028901 | 17.22° C | 67% | 1007.9 hPa | 0 mm | 0.45 m/s, 242° | 0 W/m² | - |
| 1778028596 | 17.22° C | 67% | 1007.7 hPa | 0 mm | 1.34 m/s, 5° | 0 W/m² | - |
| 1778028294 | 17.22° C | 67% | 1007.8 hPa | 0 mm | 0.89 m/s, 85° | 0 W/m² | - |
| 1778027990 | 17.22° C | 67% | 1007.7 hPa | 0 mm | 0.89 m/s, 189° | 0 W/m² | - |
| 1778027687 | 17.22° C | 67% | 1007.7 hPa | 0 mm | 0.45 m/s, 119° | 0 W/m² | - |
| 1778027383 | 17.22° C | 66% | 1007.5 hPa | 0 mm | 1.79 m/s, 15° | 0 W/m² | - |
| 1778027079 | 17.22° C | 66% | 1007.4 hPa | 0 mm | 0.45 m/s, 294° | 0 W/m² | - |
| 1778026775 | 17.78° C | 66% | 1007.3 hPa | 0 mm | 0.45 m/s, 192° | 0 W/m² | - |
| 1778026472 | 17.78° C | 66% | 1007.2 hPa | 0 mm | 0.45 m/s, 110° | 0 W/m² | - |
| 1778026169 | 17.78° C | 65% | 1007.2 hPa | 0 mm | 2.24 m/s, 140° | 0 W/m² | - |
| 1778025867 | 17.78° C | 65% | 1007.1 hPa | 0 mm | 1.79 m/s, 193° | 0 W/m² | - |
| 1778025563 | 17.78° C | 64% | 1007 hPa | 0 mm | 0.89 m/s, 61° | 1 W/m² | - |
| 1778025262 | 17.78° C | 64% | 1006.9 hPa | 0 mm | 1.34 m/s, 211° | 1 W/m² | - |
* Rain latest hour (hover to see other rain measurements)
** Current wind speed in m/s (hover to see current wind gust speed)